Regional Weather Roundup
Issued by NWS

Home | Current Version | Previous Version | Text Only | Print | Product List | Glossary Off
Versions: 1 2 3 4 5 6 7 8 9 10 11 12 13 14 15 16 17 18 19 20 21 22 23 24 25 26 27 28 29 30 31 32 33 34 35 36 37 38 39 40 41 42 43 44 45 46 47 48 49 50

340
ASUS44 KJAN 241710
RWRMS

MISSISSIPPI HOURLY WEATHER ROUNDUP
NATIONAL WEATHER SERVICE JACKSON MS
1200 PM CDT THU JUL 24 2014

NOTE: "FAIR: INDICATES FEW OR NO CLOUDS BELOW 12,000 FEET WITH NO
SIGNIFICANT WEATHER AND/OR OBSTRUCTIONS TO VISIBILITY.

MSZ001>002-007>008-010>013-018>021-025>028-034>036-241800-
NORTHWEST MISSISSIPPI

CITY           SKY/WX    TMP DP  RH WIND       PRES   REMARKS
CLARKSDALE     CLOUDY    77  73  88 NW3       30.07R
CLEVELAND      CLOUDY    81  74  80 N6        30.04F
GREENWOOD      PTSUNNY   83  72  69 NW6       30.03F
GREENVILLE       N/A     84  72  67 NE3       30.04
GRENADA        FAIR      84  70  61 CALM      30.03F
OLIVE BRANCH   MOSUNNY   79  61  53 N9        30.07S
OXFORD         PTSUNNY   79  70  73 N8        30.07S
TUNICA         SUNNY     79  66  65 N9        30.07S
$$

MSZ003>006-009-014>017-022>024-029>033-037>039-241800-
NORTHEAST MISSISSIPPI

CITY           SKY/WX    TMP DP  RH WIND       PRES   REMARKS
BELMONT        CLOUDY    77  70  78 NW7       30.04S
COLUMBUS AFB   PTSUNNY   85  72  66 N7        30.02F HX  90
CORINTH        PTSUNNY   77  66  69 NW7       30.04S
GOLDN TRIANGLE PTSUNNY   82  72  69 NW3       30.03S
STARKVILLE     FAIR      82  72  69 CALM      30.02F
TUPELO         PTSUNNY   80  71  74 N7        30.03S
$$

MSZ040-058-241800-
CENTRAL MISSISSIPPI

CITY           SKY/WX    TMP DP  RH WIND       PRES   REMARKS
JACKSON INTL   PTSUNNY   85  73  67 CALM      30.02F HX  91
JACKSON HAWKNS PTSUNNY   85  71  63 NW3       30.03F HX  90
MERIDIAN KEY   PTSUNNY   86  70  58 CALM      30.01F HX  90
MERIDIAN NAS   PTSUNNY   88  72  58 SW6       30.02F HX  94
RAYMOND        FAIR      86  81  84 NW7       30.02F HX 102
VICKSBURG      PTSUNNY   84  75  74 VRB3      30.02F HX  92
$$

MSZ059>079-241800-
SOUTH MISSISSIPPI

CITY           SKY/WX    TMP DP  RH WIND       PRES   REMARKS
BROOKHAVEN     FAIR      84  73  70 CALM      30.04F HX  91
COLUMBIA       FAIR      86  70  58 S3        30.01F HX  90
HATTIESBURG    SUNNY     86  68  54 W3        30.02F
MCCOMB         MOSUNNY   87  71  58 CALM      30.02F HX  93
NATCHEZ        CLOUDY    82  73  74 N6        30.03F
PINE BELT      SUNNY     84  70  61 S5        30.04F
$$

MSZ080>082-241800-
COASTAL MISSISSIPPI

CITY           SKY/WX    TMP DP  RH WIND       PRES   REMARKS
BAY ST LOUIS   MOSUNNY  N/A N/A N/A CALM      30.02F
BILOXI         MOSUNNY   85  73  68 SW7       30.02F HX  91
PASCAGOULA     CLOUDY    84  74  71 VRB3      30.02S HX  91
GULFPORT       MOSUNNY   86  73  65 VRB3      30.01F HX  93
$$



USA.gov is the U.S. government's official web portal to all federal, state and local government web resources and services.